EW5461 Weather Reports


Display with metric or nautical units.
time (UTC)temp
F
wind
direction
speed
MPH
gust
MPH
rain 1hr
in
rain 24hr
in
rain mn
in
humidity
%
barometer
mb
20260507114509 51 14 0.0 1.0 0.00 0.04 0.00 89 1019.2
20260507113007 51 14 0.0 5.0 0.00 0.04 0.00 89 1018.9
20260507111509 51 18 3.0 5.0 0.00 0.04 0.00 89 1019.2
20260507110006 51 18 2.0 4.0 0.00 0.04 0.00 89 1019.2
20260507104509 51 18 0.0 3.0 0.00 0.04 0.00 89 1019.1
20260507103001 51 18 1.0 3.0 0.00 0.04 0.00 89 1018.7
20260507101606 51 18 1.0 2.0 0.00 0.04 0.00 88 1018.6
20260507100058 51 18 0.0 3.0 0.00 0.04 0.00 88 1018.4
20260507094557 51 18 1.0 3.0 0.00 0.04 0.00 87 1018.0
20260507093057 52 18 0.0 0.0 0.00 0.04 0.00 86 1017.9
20260507091553 52 18 0.0 2.0 0.00 0.04 0.00 86 1017.4
20260507090054 52 18 1.0 5.0 0.00 0.04 0.00 86 1017.0
20260507084551 53 55 1.0 4.0 0.00 0.04 0.00 85 1017.0
20260507083048 53 360 0.0 3.0 0.00 0.04 0.00 85 1017.3
20260507081549 53 360 1.0 3.0 0.00 0.04 0.00 84 1017.5
20260507080048 53 360 1.0 4.0 0.00 0.04 0.00 83 1017.2
20260507074557 54 360 0.0 3.0 0.00 0.04 0.00 83 1017.1
20260507073039 54 360 0.0 5.0 0.00 0.04 0.00 83 1017.0
20260507071536 54 360 3.0 6.0 0.00 0.04 0.00 82 1016.9
20260507070033 55 23 3.0 6.0 0.00 0.04 0.00 81 1016.6
20260507064530 55 32 0.0 4.0 0.00 0.04 0.00 81 1016.8
20260507063029 55 40 2.0 5.0 0.00 0.04 0.00 81 1016.5
20260507061522 55 15 1.0 3.0 0.00 0.04 0.00 81 1016.6
20260507060026 56 84 0.0 0.0 0.00 0.04 0.00 81 1016.5
20260507054521 56 62 0.0 1.0 0.00 0.04 0.00 80 1016.4
20260507053019 56 44 1.0 2.0 0.00 0.04 0.00 79 1016.3
20260507051515 56 360 0.0 3.0 0.00 0.04 0.00 79 1016.3
20260507050024 57 48 0.0 4.0 0.00 0.04 0.00 78 1016.4
20260507044512 57 42 1.0 3.0 0.00 0.04 0.04 77 1016.3
20260507043012 58 59 0.0 4.0 0.00 0.04 0.04 77 1016.3
20260507041511 58 324 0.0 5.0 0.00 0.04 0.04 76 1016.5
20260507040010 58 148 1.0 6.0 0.00 0.04 0.04 75 1016.5
20260507034509 58 74 2.0 12.0 0.00 0.04 0.04 75 1016.4
20260507033017 59 67 3.0 11.0 0.00 0.04 0.04 74 1016.4
20260507031508 59 54 4.0 11.0 0.00 0.04 0.04 74 1016.3
20260507030007 59 63 4.0 15.0 0.00 0.04 0.04 74 1016.5
20260507024504 60 39 6.0 11.0 0.00 0.04 0.04 73 1016.0
20260507023002 61 20 8.0 15.0 0.00 0.04 0.04 73 1015.6
20260507021503 61 21 3.0 10.0 0.00 0.04 0.04 73 1015.4
20260507020001 61 19 5.0 11.0 0.00 0.04 0.04 73 1015.1
20260507014606 62 33 3.0 9.0 0.00 0.04 0.04 75 1014.7
20260507013100 62 43 2.0 11.0 0.00 0.04 0.04 74 1014.4
20260507011559 62 60 2.0 8.0 0.00 0.04 0.04 73 1014.1
20260507010109 62 63 4.0 12.0 0.00 0.04 0.04 73 1013.8
20260507004558 63 54 3.0 11.0 0.00 0.04 0.04 72 1013.6
20260507003057 64 36 6.0 12.0 0.00 0.04 0.04 71 1013.5
20260507001603 64 54 3.0 9.0 0.00 0.04 0.04 71 1013.3
20260507000056 64 15 5.0 9.0 0.00 0.04 0.04 70 1013.1
20260506234556 65 36 4.0 10.0 0.00 0.04 0.04 69 1013.0
20260506233109 65 41 3.0 9.0 0.00 0.04 0.04 70 1012.8
20260506231553 65 5 4.0 12.0 0.00 0.04 0.04 70 1012.7
20260506230052 66 65 3.0 7.0 0.00 0.04 0.04 69 1012.4
20260506224552 67 11 2.0 11.0 0.00 0.04 0.04 68 1012.6
20260506223051 66 14 5.0 12.0 0.00 0.04 0.04 68 1012.3
20260506221548 65 25 4.0 10.0 0.00 0.04 0.04 69 1012.2
20260506220048 65 5 8.0 12.0 0.00 0.04 0.04 69 1012.3
20260506214545 65 327 3.0 11.0 0.00 0.04 0.04 71 1012.4
20260506213053 65 27 4.0 10.0 0.00 0.04 0.04 72 1012.6
20260506211539 63 44 3.0 12.0 0.00 0.04 0.04 73 1012.6
20260506210039 62 34 3.0 10.0 0.00 0.04 0.04 73 1012.7
20260506204543 62 339 2.0 6.0 0.00 0.04 0.04 71 1012.9
20260506203037 62 360 3.0 10.0 0.00 0.04 0.04 73 1012.8
20260506201536 62 5 5.0 10.0 0.00 0.04 0.04 73 1013.3
20260506200034 61 10 1.0 5.0 0.00 0.04 0.04 74 1013.4
20260506194536 61 347 3.0 9.0 0.00 0.04 0.04 73 1013.5
20260506193033 60 30 2.0 8.0 0.00 0.04 0.04 74 1013.8
20260506191530 58 360 4.0 9.0 0.00 0.04 0.04 75 1014.1
20260506190030 58 5 3.0 8.0 0.00 0.04 0.04 76 1014.1
20260506184529 58 5 4.0 10.0 0.00 0.04 0.04 76 1013.9
20260506183028 58 17 5.0 16.0 0.00 0.04 0.04 78 1013.1
20260506181527 56 5 7.0 14.0 0.00 0.04 0.04 78 1013.1
20260506180027 56 13 6.0 13.0 0.00 0.04 0.04 80 1013.2
20260506174526 55 21 8.0 14.0 0.00 0.04 0.04 80 1013.7
20260506173026 55 34 3.0 13.0 0.00 0.04 0.04 84 1013.5
20260506171527 53 28 6.0 14.0 0.00 0.04 0.04 83 1013.5
20260506170025 53 360 7.0 15.0 0.00 0.04 0.04 84 1013.2
20260506164525 53 44 3.0 8.0 0.00 0.04 0.04 86 1013.7
20260506163046 53 355 4.0 14.0 0.00 0.04 0.04 86 1013.9
20260506161524 52 9 4.0 12.0 0.00 0.04 0.04 87 1013.7
20260506160023 52 12 9.0 20.0 0.01 0.04 0.04 88 1012.7
20260506154520 52 5 10.0 19.0 0.04 0.04 0.04 90 1012.8
20260506153020 51 342 4.0 8.0 0.04 0.04 0.04 90 1014.0
20260506151519 51 339 5.0 12.0 0.04 0.04 0.04 90 1013.8
20260506150017 51 355 4.0 8.0 0.02 0.02 0.02 88 1014.7
20260506144514 51 317 5.0 8.0 0.00 0.00 0.00 87 1014.9
20260506143013 51 337 4.0 14.0 0.00 0.00 0.00 87 1014.3
20260506141513 51 5 4.0 12.0 0.00 0.00 0.00 86 1013.3
20260506140010 51 10 7.0 12.0 0.00 0.00 0.00 85 1014.0
20260506134509 51 338 8.0 13.0 0.00 0.00 0.00 85 1013.8
20260506133005 51 13 5.0 12.0 0.00 0.00 0.00 85 1013.0
20260506131504 51 32 6.0 13.0 0.00 0.00 0.00 85 1012.8
20260506130000 51 14 8.0 18.0 0.00 0.00 0.00 84 1012.5
20260506124559 51 350 8.0 15.0 0.00 0.00 0.00 84 1012.1
20260506123057 51 49 9.0 17.0 0.00 0.00 0.00 83 1012.2
20260506121553 52 344 8.0 20.0 0.00 0.00 0.00 82 1012.0
20260506120057 53 5 7.0 17.0 0.00 0.00 0.00 80 1011.8
20260506114556 53 14 5.0 14.0 0.00 0.00 0.00 79 1011.7